Location: Steventon
(51.2167°N, 1.2167°W)
Time: 15:13:21
(UTC+00:00)

Daily predictions for brighter satellites

Satellite Brightness Start Highest point End
(mag) Time Altitude Azimuth Time Altitude Azimuth Time Altitude Azimuth
GEOS 3 Rocket 4.0 20:58:35 10° NE 21:03:44 44° SE 21:08:51 10° SSW
Cosmos 2278 Rocket 3.3 21:01:37 10° NNW 21:06:50 36° NE 21:12:01 10° ESE
USA 215 3.9 21:01:33 10° ENE 21:07:23 33° SE 21:13:09 10° SSW
ATLAS 5 CENTAUR R/B 1.7 21:07:08 10° SSW 21:11:11 52° SE 21:15:46 10° NE
Cosmos 1844 Rocket 3.0 21:06:22 10° NW 21:11:55 67° WSW 21:17:25 10° SSE
Gblst 52 Del rocket 4.3 21:07:04 10° WNW 21:12:41 80° SSW 21:18:53 10° ESE
USA 245 3.4 21:09:31 10° S 21:12:53 72° WSW 21:17:12 10° NNW
Cosmos 1400 Rocket 2.8 21:08:53 10° NNW 21:12:54 86° W 21:16:50 10° S
Cosmos 1758 Rocket 3.6 21:11:17 10° S 21:15:47 85° E 21:20:18 10° NNE
Meteor 2-10 Rocket 4.4 21:11:00 10° NNW 21:15:54 49° W 21:20:56 10° S
Lacrosse 5 rocket 2.8 21:14:51 10° W 21:18:54 40° NNW 21:22:44 10° ENE
SPOT 5 3.1 21:14:27 10° SSE 21:19:25 62° ENE 21:24:08 10° N
BREEZE-M DEB (TANK) 4.2 21:15:39 10° W 21:19:36 78° S 21:34:28 10° E
Spot 2 Rocket 3.9 21:18:15 10° S 21:23:18 63° WSW 21:28:24 10° NNW
USA 81 4.4 21:20:45 10° SSE 21:25:49 51° E 21:30:57 10° NNE
BREEZE M DEB (TANK) 3.2 21:23:41 10° W 21:26:07 24° SSW 21:27:39 12° SSE
Cosmos 2181 Rocket 4.1 21:21:19 10° N 21:27:42 72° ENE 21:33:56 10° SSE
Landsat 7 4.3 21:23:06 10° S 21:27:48 61° WSW 21:32:32 10° NNW
SPOT 1/Viking Rocket 4.0 21:32:49 10° S 21:37:55 62° WSW 21:43:04 10° NNW
Cosmos 1953 Rocket 3.5 21:34:34 10° S 21:38:53 81° E 21:43:14 10° NNE
USA 267 3.4 21:35:14 10° ESE 21:41:49 85° NNE 21:48:25 10° WNW
CZ-4C R/B 4.4 21:36:23 10° NW 21:41:51 30° N 21:48:12 10° ENE
SAR-Lupe-2 3.6 21:39:25 10° NNE 21:43:02 86° WNW 21:46:38 10° SSW
Cosmos 1328 4.3 21:39:46 10° SSW 21:43:41 60° WNW 21:47:38 10° N
Cosmos 2084 3.6 21:39:42 10° NW 21:44:11 80° SW 21:48:05 13° SE
Cosmos 1842 Rocket 3.8 21:41:01 10° N 21:45:20 56° ENE 21:49:02 13° SSE
Cosmos 2322 Rocket 3.7 21:40:39 10° WSW 21:45:57 41° NW 21:51:17 10° NNE
Cosmos 1455 4.3 21:43:02 10° NW 21:46:09 24° W 21:49:16 10° SW
Cosmos 1825 Rocket 4.5 21:50:21 10° SSW 21:54:40 50° WNW 21:59:03 10° N
ATLAS CENTAUR R/B 1.3 21:52:01 10° NW 21:55:41 60° SW 21:58:26 16° SSE
Cosmos 1825 4.3 21:58:09 10° ESE 21:59:56 13° E 22:01:49 10° NE
COSMOS 2428 2.7 22:00:03 10° SSW 22:05:40 68° ESE 22:11:19 10° NE
Cosmos 1869 3.3 22:02:21 10° N 22:06:20 74° ENE 22:09:22 17° SSE
Cosmos 2322 3.9 22:03:50 10° SW 22:09:34 77° WNW 22:15:20 10° NNE
NOSS 3-4 (A) 4.0 22:05:45 10° NW 22:12:35 75° NE 22:19:47 12° SE
NOSS 3-4 (C) 4.0 22:05:51 10° NW 22:12:41 75° NE 22:19:55 12° SE
NOSS 0 Rocket 4.3 22:07:31 10° S 22:13:11 44° ESE 22:19:00 10° NE
Terra 2.2 22:10:34 13° S 22:14:46 61° WSW 22:19:31 10° NNW
Cosmos 2237 Rocket 2.8 22:14:58 15° S 22:19:10 38° ESE 22:24:24 10° NE
BREEZE-M DEB 4.4 22:15:42 10° W 22:19:34 54° SSW 22:33:38 10° SE
Atlas Centaur 2 4.4 22:19:48 10° SSW 22:21:19 11° S 22:21:21 11° S
Cosmos 2219 Rocket 2.2 22:15:51 10° SSW 22:21:28 87° WNW 22:27:08 10° NNE
Cosmos 2344 4.2 22:16:02 13° S 22:21:38 33° ESE 22:28:27 10° NE
Cosmos 1538 Rocket 4.1 22:17:23 10° SSW 22:22:46 83° WNW 22:28:08 10° NNE
Cosmos 2360 Rocket 3.7 22:18:31 10° WSW 22:23:49 40° NW 22:29:09 10° NNE
NOSS 3-3 (A) 3.9 22:18:02 10° SW 22:23:57 76° SE 22:30:42 10° NE
NOSS 3-3 (C) 3.9 22:18:08 10° SW 22:24:03 76° SE 22:30:50 10° NE
Cosmos 1315 Rocket 4.0 22:22:38 10° NNW 22:26:28 39° W 22:29:55 12° SSW
Thor Agena Rocket 4.1 22:25:14 10° NNE 22:30:05 41° E 22:33:18 19° SSE
Meteor 2-2 Rocket 4.4 22:25:31 10° NNW 22:31:22 74° W 22:35:55 16° S
Cosmos 2333 Rocket 2.5 22:25:56 10° SW 22:31:37 73° WNW 22:37:23 10° NNE
Cosmos 2184 Rocket 4.0 22:27:10 12° S 22:33:04 89° ESE 22:39:26 10° N
Cosmos 2221 3.0 22:31:48 10° NNW 22:36:06 56° W 22:39:20 17° S
BREEZE-M DEB (TANK) 1.7 22:35:06 10° W 22:39:50 60° SSW 22:41:22 22° ESE
Iridium 2 3.9 22:36:31 10° N 22:40:19 58° E 22:42:26 24° SSE
Cosmos 1371 Rocket 4.1 22:35:13 10° NNW 22:40:29 72° ENE 22:44:15 20° SE
ATLAS 2AS CENTAUR R/B 2.9 22:32:52 10° NW 22:40:35 89° SW 22:46:24 16° SE
EO 1 Del DPAF 3.8 22:39:37 10° NNE 22:43:13 41° E 22:45:00 24° SSE
Cosmos 1892 2.6 22:41:59 20° S 22:44:29 87° E 22:48:19 10° N
Aureole 2 Rocket 3.1 22:45:02 10° N 22:47:38 33° ENE 22:48:59 21° ESE
Cosmos 1606 3.8 22:46:35 10° N 22:50:11 35° ENE 22:52:19 20° SE
USA 215 3.2 22:44:21 10° ENE 22:50:57 85° SSE 22:57:32 10° WSW
Cosmos 2278 Rocket 2.6 22:45:40 10° NW 22:51:11 53° WSW 22:54:59 20° S
Cosmos 2112 Rocket 4.2 22:48:24 19° S 22:52:11 58° ESE 22:57:26 10° NNE
Cosmos 2297 4.1 22:46:58 10° NNW 22:52:39 59° NE 22:57:11 16° SE
ATLAS 5 CENTAUR R/B 3.4 22:51:57 10° W 22:56:01 36° NNW 23:00:39 10° NE
Cosmos 158 Rocket 3.9 22:52:56 19° S 22:56:19 64° ESE 23:01:13 10° NNE
Lacrosse 5 rocket 2.7 22:54:48 10° WNW 22:58:43 39° N 23:02:23 10° E
Cosmos 1943 Rocket 3.4 22:53:51 10° NNW 22:59:08 38° NE 23:04:23 10° ESE
Spot 4 3.8 22:59:07 23° S 23:02:08 80° WSW 23:06:57 10° NNW
SL-16 R/B 3.1 23:00:47 21° SSE 23:03:34 32° ESE 23:08:34 10° NE
Cosmos 2058 3.3 23:01:11 17° SSW 23:04:15 61° WNW 23:08:23 10° N
Cosmos 2056 Rocket 3.6 22:59:00 10° NNW 23:04:27 87° WSW 23:07:58 23° SSE
Cosmos 1408 2.5 23:03:24 26° SSW 23:05:18 86° W 23:08:54 10° N
Nadezhda 3 Rocket 4.3 23:02:58 10° NNW 23:09:16 64° W 23:13:54 19° S
Cosmos 2154 Rocket 4.1 23:07:49 16° SSW 23:12:58 74° WNW 23:19:13 10° N
Cosmos 2341 Rocket 4.0 23:11:46 21° S 23:16:02 72° E 23:22:15 10° NNE
Cosmos 1076 Rocket 4.1 23:12:54 17° SSW 23:16:06 53° WNW 23:20:18 10° N
Cosmos 1680 Rocket 3.6 23:15:57 14° SSW 23:20:32 79° WNW 23:25:54 10° NNE
Meteor 2-3 Rocket 4.5 23:21:02 21° SSE 23:24:14 40° E 23:29:32 10° NNE
USA 267 3.8 23:21:24 22° SSE 23:25:14 41° SW 23:31:23 10° WNW
Cosmos 2151 2.9 23:23:52 26° S 23:26:15 89° W 23:30:33 10° N
Helios 1A 3.6 23:24:53 22° SE 23:27:16 48° ENE 23:31:19 10° N
Cosmos 1452 Rocket 3.8 23:26:14 10° NNW 23:31:29 64° ENE 23:35:06 20° SE
CZ-4C R/B 3.6 23:25:15 10° NW 23:31:51 53° NE 23:39:36 10° ESE
BREEZE-M DEB (TANK) 4.3 23:30:27 10° W 23:32:21 12° WSW 23:32:45 12° SW
COSMOS 2455 3.1 23:27:07 10° NW 23:33:10 68° NE 23:38:24 14° SE
Cosmos 1825 2.5 23:32:56 25° SSW 23:34:58 60° WNW 23:38:44 10° N
SL-8 Rocket 4.0 23:30:59 23° S 23:34:59 75° E 23:41:09 10° NNE
IRIDIUM 114 4.4 23:32:35 25° S 23:35:37 71° E 23:40:50 10° N
Cosmos 1340 3.2 23:34:23 30° SSE 23:35:45 44° E 23:39:21 10° NNE
Cosmos 1933 3.3 23:32:18 10° N 23:36:22 82° E 23:38:13 31° SSE
ALOS 2 2.7 23:35:27 28° S 23:37:41 69° WSW 23:42:06 10° NNW
Cosmos 1151 Rocket 3.0 23:33:32 10° N 23:37:55 90° SE 23:40:03 29° S
Cosmos 1408 Rocket 4.0 23:35:56 27° SSE 23:37:58 49° E 23:42:14 10° NNE
APEX 2.4 23:40:55 10° NNW 23:43:40 70° ENE 23:44:22 44° SE
Cosmos 2369 Rocket 2.8 23:38:21 10° NNW 23:43:51 52° NE 23:48:49 12° SE
Cosmos 1727 Rocket 4.2 23:37:38 10° N 23:43:52 67° ENE 23:48:04 22° SSE
IRIDIUM 103 4.3 23:41:42 26° S 23:44:45 83° E 23:50:00 10° N
Cosmos 1980 4.3 23:39:14 10° SW 23:44:47 57° NW 23:50:23 10° NNE
Cosmos 44 3.1 23:43:38 29° S 23:45:38 56° SE 23:50:00 10° NE
GP-B 3.1 23:42:04 10° N 23:46:31 78° W 23:48:50 28° SSW
Cosmos 371 Rocket 3.3 23:42:55 10° NNW 23:47:48 78° WSW 23:50:25 27° SSE
SL-4 R/B 0.7 23:48:59 61° NNW 23:48:59 61° NNW 23:50:47 10° NNW
Helios 1B rocket 4.1 23:50:22 10° NE 23:53:42 23° E 23:55:23 18° SE
CREW DRAGON DEMO-1 DEB 2.9 23:54:49 49° S 23:55:10 53° SSE 23:58:11 10° E
